Regional Weather Roundup
Issued by NWS

Home | Current Version | Previous Version | Text Only | Print | Product List | Glossary On
Versions: 1 2 3 4 5 6 7 8 9 10 11 12 13 14 15 16 17 18 19 20 21 22 23 24 25 26 27 28 29 30 31 32 33 34 35 36 37 38 39 40 41 42 43 44 45 46 47 48 49 50
000
ASUS43 KFSD 211310
RWRSD

WEATHER ROUNDUP FOR SOUTH DAKOTA
NATIONAL WEATHER SERVICE SIOUX FALLS SD
800 AM CDT FRI JUL 21 2017

NOTE: "FAIR" INDICATES FEW OR NO CLOUDS BELOW 12,000 FEET WITH NO
SIGNIFICANT WEATHER AND/OR OBSTRUCTIONS TO VISIBILITY.


SDZ001>005-009-010-012>017-211400-
NORTHWEST AND NORTH CENTRAL SOUTH DAKOTA

CITY           SKY/WX    TMP DP  RH WIND       PRES   REMARKS
BUFFALO          N/A     69  64  84 S13       29.81S
FAITH            N/A     69  69 100 S16       29.84R
MOBRIDGE       MOSUNNY   73  66  78 SE5       29.76R
$$

SDZ012>016-024>037-041>051-057-063-072>074-211400-
SOUTHWEST AND SOUTH CENTRAL SOUTH DAKOTA

CITY           SKY/WX    TMP DP  RH WIND       PRES   REMARKS
RAPID CTY ARPT MOSUNNY   67  64  90 SE7       29.89F
PIERRE         NOT AVBL
CUSTER         CLOUDY    64  56  75 W6        30.04S
ELLSWORTH AFB  MOSUNNY   67  67 100 S7        29.89S
PHILIP         CLOUDY    72  70  93 SW9       29.83S
PINE RIDGE     MOSUNNY   67  66  97 CALM      29.92S
SPEARFISH      FAIR      64  63  94 W5        29.93R
WINNER         FAIR      74  68  81 CALM      29.79R
$$

SDZ004>011-016>023-039-040-211400-
NORTHEAST SOUTH DAKOTA

CITY           SKY/WX    TMP DP  RH WIND       PRES   REMARKS
ABERDEEN       CLOUDY    74  71  91 SE9       29.79R
WATERTOWN      CLOUDY    71  69  93 SE13      29.83F
BROOKINGS      LGT RAIN  72  70  94 E16       29.86F
SISSETON         N/A     72  71  97 SE16      29.83R
$$

SDZ017-020-022-023-036>040-048>070-211400-
SOUTHEAST SOUTH DAKOTA

CITY           SKY/WX    TMP DP  RH WIND       PRES   REMARKS
SIOUX FALLS    LGT RAIN  73  72  96 E10       29.83F
HURON          CLOUDY    72  70  93 SE5       29.77F
CHAMBERLAIN    LGT RAIN  74  74  99 SE8       29.77F
MITCHELL       LGT RAIN  74  72  93 SE12      29.78F
YANKTON        CLOUDY    72  70  93 NE10      29.84R
$$

ABBREVIATIONS USED IN REMARKS
   TC - TEMPERATURE IN CELSIUS
  WCI - WIND CHILL INDEX
   HX - HEAT INDEX
  VSB - VISIBILITY





USA.gov is the U.S. government's official web portal to all federal, state and local government web resources and services.